Hourly Weather Rudnya Stolbunskaya

Today, 16 June, Wednesday

Time Temperature Precipitation Wind Pressure Humidity
00:00 +16°C° 0 mm 3 mps 747 mmHg 90%
01:00 +14°C° 0 mm 3 mps 747 mmHg 90%
02:00 +14°C° 0 mm 3 mps 748 mmHg 90%
03:00 +14°C° 0 mm 3 mps 748 mmHg 90%
04:00 +15°C° 0 mm 2 mps 748 mmHg 89%
05:00 +15°C° 0 mm 2 mps 748 mmHg 89%
06:00 +17°C° 0 mm 3 mps 748 mmHg 85%
07:00 +19°C° 0 mm 3 mps 748 mmHg 80%
08:00 +20°C° 0 mm 3 mps 749 mmHg 76%
09:00 +21°C° 0.1 mm 3 mps 749 mmHg 72%
10:00 +24°C° 0.1 mm 3 mps 749 mmHg 68%
11:00 +25°C° 0.1 mm 3 mps 749 mmHg 65%
12:00 +25°C° 0.5 mm 3 mps 749 mmHg 64%
13:00 +25°C° 0.5 mm 4 mps 749 mmHg 63%
14:00 +25°C° 0.5 mm 4 mps 749 mmHg 63%
15:00 +25°C° 0.2 mm 4 mps 749 mmHg 65%
16:00 +25°C° 0.2 mm 4 mps 749 mmHg 68%
17:00 +23°C° 0.2 mm 4 mps 749 mmHg 70%
18:00 +22°C° 0.1 mm 3 mps 749 mmHg 75%
19:00 +20°C° 0.1 mm 3 mps 750 mmHg 79%
20:00 +18°C° 0.1 mm 3 mps 750 mmHg 83%
21:00 +18°C° 0 mm 3 mps 750 mmHg 84%
22:00 +17°C° 0 mm 3 mps 751 mmHg 84%
23:00 +16°C° 0 mm 3 mps 751 mmHg 84%

Tomorrow, 17 June, Thursday

Time Temperature Precipitation Wind Pressure Humidity
00:00 +14°C° 0 mm 3 mps 751 mmHg 84%
01:00 +14°C° 0 mm 3 mps 752 mmHg 84%
02:00 +13°C° 0 mm 3 mps 752 mmHg 83%
03:00 +13°C° 0 mm 3 mps 752 mmHg 84%
04:00 +13°C° 0 mm 3 mps 753 mmHg 84%
05:00 +13°C° 0 mm 3 mps 753 mmHg 84%
06:00 +16°C° 0 mm 3 mps 753 mmHg 79%
07:00 +18°C° 0 mm 4 mps 753 mmHg 73%
08:00 +20°C° 0 mm 4 mps 754 mmHg 67%
09:00 +21°C° 0 mm 4 mps 754 mmHg 65%
10:00 +23°C° 0 mm 5 mps 754 mmHg 62%
11:00 +25°C° 0 mm 5 mps 754 mmHg 60%
12:00 +25°C° 0 mm 5 mps 754 mmHg 58%
13:00 +26°C° 0 mm 5 mps 755 mmHg 56%
14:00 +26°C° 0 mm 4 mps 755 mmHg 54%
15:00 +26°C° 0 mm 4 mps 755 mmHg 57%
16:00 +26°C° 0 mm 4 mps 755 mmHg 59%
17:00 +25°C° 0 mm 3 mps 755 mmHg 61%
18:00 +22°C° 0 mm 3 mps 755 mmHg 67%
19:00 +21°C° 0 mm 3 mps 755 mmHg 72%
20:00 +19°C° 0 mm 2 mps 755 mmHg 77%
21:00 +18°C° 0 mm 2 mps 756 mmHg 80%
22:00 +17°C° 0 mm 3 mps 756 mmHg 82%
23:00 +16°C° 0 mm 3 mps 756 mmHg 85%

Day after tomorrow, 18 June, Friday

Time Temperature Precipitation Wind Pressure Humidity
00:00 +14°C° 0 mm 3 mps 756 mmHg 87%
01:00 +15°C° 0 mm 2 mps 756 mmHg 89%
02:00 +14°C° 0 mm 2 mps 757 mmHg 91%
03:00 +14°C° 0 mm 2 mps 757 mmHg 90%
04:00 +13°C° 0 mm 3 mps 757 mmHg 90%
05:00 +13°C° 0 mm 3 mps 757 mmHg 89%
06:00 +16°C° 0 mm 3 mps 757 mmHg 82%
07:00 +18°C° 0 mm 3 mps 757 mmHg 76%
08:00 +20°C° 0 mm 4 mps 757 mmHg 69%
09:00 +21°C° 0 mm 4 mps 757 mmHg 64%
10:00 +22°C° 0 mm 4 mps 757 mmHg 59%
11:00 +23°C° 0 mm 4 mps 757 mmHg 54%
12:00 +25°C° 0 mm 4 mps 757 mmHg 53%
13:00 +25°C° 0 mm 4 mps 757 mmHg 53%
14:00 +26°C° 0 mm 4 mps 757 mmHg 52%
15:00 +26°C° 0 mm 4 mps 757 mmHg 56%
16:00 +25°C° 0 mm 4 mps 757 mmHg 59%
17:00 +25°C° 0 mm 4 mps 756 mmHg 62%
18:00 +22°C° 0 mm 3 mps 757 mmHg 69%
19:00 +21°C° 0 mm 3 mps 757 mmHg 77%
20:00 +19°C° 0 mm 3 mps 757 mmHg 84%
21:00 +18°C° 0 mm 3 mps 757 mmHg 86%
22:00 +17°C° 0 mm 3 mps 757 mmHg 89%
23:00 +16°C° 0 mm 2 mps 757 mmHg 92%

19 June, Saturday

Time Temperature Precipitation Wind Pressure Humidity
00:00 +16°C° 0 mm 2 mps 757 mmHg 92%
01:00 +16°C° 0 mm 2 mps 757 mmHg 93%
02:00 +15°C° 0 mm 2 mps 757 mmHg 94%
03:00 +15°C° 0 mm 2 mps 757 mmHg 93%
04:00 +16°C° 0 mm 2 mps 757 mmHg 93%
05:00 +16°C° 0 mm 2 mps 758 mmHg 93%
06:00 +17°C° 0 mm 3 mps 758 mmHg 86%
07:00 +19°C° 0 mm 3 mps 758 mmHg 79%
08:00 +21°C° 0 mm 4 mps 758 mmHg 73%
09:00 +22°C° 0 mm 4 mps 758 mmHg 68%
10:00 +23°C° 0 mm 4 mps 757 mmHg 64%
11:00 +25°C° 0 mm 4 mps 757 mmHg 60%
12:00 +26°C° 0 mm 4 mps 757 mmHg 58%
13:00 +26°C° 0 mm 4 mps 757 mmHg 56%
14:00 +26°C° 0 mm 4 mps 756 mmHg 54%
15:00 +26°C° 0 mm 4 mps 756 mmHg 57%
16:00 +26°C° 0 mm 4 mps 756 mmHg 60%
17:00 +26°C° 0 mm 3 mps 756 mmHg 62%
18:00 +24°C° 0 mm 3 mps 756 mmHg 69%
19:00 +21°C° 0 mm 3 mps 756 mmHg 76%
20:00 +20°C° 0 mm 3 mps 756 mmHg 83%
21:00 +19°C° 0 mm 3 mps 756 mmHg 86%
22:00 +18°C° 0 mm 3 mps 756 mmHg 88%
23:00 +17°C° 0 mm 3 mps 756 mmHg 91%

20 June, Sunday

Time Temperature Precipitation Wind Pressure Humidity
00:00 +16°C° 0 mm 3 mps 756 mmHg 92%
01:00 +15°C° 0 mm 2 mps 756 mmHg 92%
02:00 +15°C° 0 mm 2 mps 756 mmHg 93%
03:00 +15°C° 0 mm 2 mps 756 mmHg 92%
04:00 +15°C° 0 mm 2 mps 756 mmHg 92%
05:00 +15°C° 0 mm 2 mps 756 mmHg 91%
06:00 +17°C° 0 mm 2 mps 756 mmHg 85%
07:00 +19°C° 0 mm 3 mps 756 mmHg 78%
08:00 +21°C° 0 mm 3 mps 756 mmHg 72%
09:00 +22°C° 0 mm 3 mps 756 mmHg 67%
10:00 +24°C° 0 mm 3 mps 756 mmHg 63%
11:00 +25°C° 0 mm 3 mps 756 mmHg 59%
12:00 +26°C° 0 mm 3 mps 755 mmHg 57%
13:00 +27°C° 0 mm 3 mps 755 mmHg 56%
14:00 +27°C° 0 mm 3 mps 755 mmHg 54%
15:00 +27°C° 0 mm 3 mps 755 mmHg 56%
16:00 +27°C° 0 mm 3 mps 754 mmHg 59%
17:00 +27°C° 0 mm 3 mps 754 mmHg 61%
18:00 +25°C° 0 mm 3 mps 754 mmHg 68%
19:00 +22°C° 0 mm 3 mps 754 mmHg 75%
20:00 +21°C° 0 mm 2 mps 754 mmHg 81%
21:00 +20°C° 0 mm 2 mps 754 mmHg 84%
22:00 +19°C° 0 mm 2 mps 754 mmHg 87%
23:00 +18°C° 0 mm 2 mps 754 mmHg 90%

21 June, Monday

Time Temperature Precipitation Wind Pressure Humidity
00:00 +18°C° 0 mm 2 mps 754 mmHg 91%
01:00 +17°C° 0 mm 2 mps 754 mmHg 92%
02:00 +17°C° 0 mm 2 mps 754 mmHg 93%
03:00 +17°C° 0 mm 2 mps 754 mmHg 92%
04:00 +17°C° 0 mm 2 mps 754 mmHg 92%
05:00 +17°C° 0 mm 2 mps 754 mmHg 92%
06:00 +19°C° 0 mm 3 mps 754 mmHg 86%
07:00 +21°C° 0 mm 3 mps 754 mmHg 79%
08:00 +23°C° 0 mm 4 mps 753 mmHg 73%
09:00 +25°C° 0 mm 4 mps 753 mmHg 67%
10:00 +26°C° 0 mm 4 mps 753 mmHg 62%
11:00 +27°C° 0 mm 4 mps 753 mmHg 57%
12:00 +28°C° 0 mm 4 mps 753 mmHg 56%
13:00 +29°C° 0 mm 4 mps 752 mmHg 55%
14:00 +29°C° 0 mm 4 mps 752 mmHg 54%
15:00 +29°C° 0 mm 4 mps 752 mmHg 57%
16:00 +29°C° 0 mm 4 mps 752 mmHg 60%
17:00 +29°C° 0 mm 4 mps 752 mmHg 63%
18:00 +27°C° 0 mm 4 mps 752 mmHg 70%
19:00 +25°C° 0 mm 3 mps 751 mmHg 77%
20:00 +24°C° 0 mm 3 mps 751 mmHg 84%
21:00 +22°C° 0 mm 3 mps 751 mmHg 86%
22:00 +21°C° 0 mm 3 mps 751 mmHg 89%
23:00 +21°C° 0 mm 3 mps 751 mmHg 91%
Show more